Lid_Strength_Index
11 13 14 13 12 14 15 15 16 15 15 16 15 15 13 12 12 13 11 10 10 9 8 8 8 8 8 7 7 7 7 7 7 8 9 9 9 8 8 8 7 7 7 7
13 15 13 13 14 14 15 16 16 16 16 16 15 15 12 12 12 12 11 10 10 8 8 9 9 8 8 7 7 8 8 8 8 9 9 9 9 9 9 9 8 8 8 8
13 14 13 14 15 15 16 16 17 17 15 15 15 14 14 12 12 11 11 9 9 8 9 9 9 8 8 7 8 8 8 9 9 9 10 10 10 9 9 9 9 8 8 8
14 14 14 15 15 15 17 16 16 17 16 16 15 15 13 14 13 12 11 10 9 9 10 10 9 9 8 8 8 8 9 9 10 10 11 11 11 11 10 10 9 9 9 9
15 15 16 16 16 16 17 15 16 16 16 17 16 16 13 15 14 12 11 10 9 9 10 10 10 9 8 8 8 9 9 10 10 10 11 11 11 11 10 10 10 10 9 9
16 14 15 15 16 16 15 16 16 16 16 17 18 17 14 14 13 13 11 10 9 9 10 10 10 9 9 8 9 9 10 10 10 11 11 11 11 11 12 11 11 11 11 10
17 17 16 15 17 15 16 17 18 17 18 17 18 18 14 13 14 12 11 10 9 9 10 11 10 9 9 9 10 10 11 11 11 11 11 11 11 12 12 12 12 12 11 11
18 19 17 16 17 17 17 16 17 18 18 18 20 19 15 14 13 13 12 11 10 10 11 11 10 10 10 10 10 11 11 12 11 11 11 11 11 12 12 12 12 12 12 11
18 19 17 17 15 15 17 18 17 20 25 20 17 17 15 14 14 13 13 11 10 10 11 11 11 10 10 11 11 11 12 12 11 11 11 12 12 12 13 12 12 12 12 11
16 19 18 17 15 15 16 17 18 18 20 20 18 20 17 16 14 13 13 12 11 10 11 12 11 11 11 11 11 11 11 12 11 11 11 12 12 12 13 13 13 12 12 12
16 16 20 17 18 18 18 18 19 17 18 17 19 16 15 14 13 12 12 11 10 10 10 12 11 11 11 11 11 12 12 12 11 11 12 12 12 13 13 13 13 13 13 13
16 16 20 19 18 17 16 17 17 15 20 21 20 18 15 14 14 14 13 12 11 10 10 12 12 11 11 11 12 12 12 12 11 11 12 12 12 13 13 14 14 13 13 13
16 17 20 20 19 18 19 18 18 20 18 22 18 15 15 15 15 14 13 12 11 11 12 12 12 12 12 12 12 13 12 12 11 11 12 13 14 14 15 14 14 13 13 13
15 17 17 17 17 17 20 19 19 18 19 19 19 15 14 13 14 13 13 12 11 11 13 13 12 12 13 13 13 13 13 12 12 12 13 14 15 15 15 15 14 14 13 13
15 17 20 18 18 18 18 19 19 20 18 18 15 18 15 13 13 13 13 13 13 13 13 13 13 13 14 14 14 14 14 13 13 14 14 15 15 14 15 15 15 14 13 13
15 18 19 19 19 19 20 19 18 19 18 20 18 18 13 12 12 13 13 13 13 13 14 14 14 14 14 14 15 15 15 15 14 15 15 15 15 15 15 15 15 14 14 13
16 16 17 18 20 18 19 19 19 18 18 17 19 15 13 13 13 13 13 13 13 12 14 14 14 14 14 15 15 15 15 15 15 15 15 15 15 15 15 15 15 15 14 14
16 17 16 19 20 21 15 16 16 16 16 17 15 15 14 14 13 14 14 14 13 14 14 15 14 14 14 15 17 17 16 15 15 15 14 15 15 15 15 15 15 14 14 14
14 16 20 20 20 18 15 18 18 18 15 14 15 14 13 13 14 12 13 14 13 13 14 14 14 15 16 18 18 18 16 15 16 15 15 16 16 16 15 16 15 14 14 14
15 16 16 22 20 21 15 17 16 16 17 14 13 13 14 14 14 9 13 15 14 16 17 16 16 17 19 19 19 17 15 16 15 16 17 17 16 17 17 15 14 14 14 14
18 18 19 20 20 19 15 17 16 17 14 15 14 13 14 14 10 12 15 14 15 15 17 16 18 17 17 18 19 16 16 15 15 16 17 17 16 16 15 15 14 14 14 15
17 18 19 20 21 21 16 17 17 12 14 15 14 14 14 13 13 13 14 14 14 15 17 16 17 17 17 19 18 16 15 15 16 16 17 16 15 14 14 14 14 15 15 16
16 14 17 17 17 14 15 14 13 14 14 13 14 14 14 14 13 13 13 13 13 14 14 15 15 15 16 18 16 15 14 16 16 17 17 16 15 14 14 14 14 14 14 15
16 14 16 16 13 15 15 13 13 13 13 13 12 12 13 13 12 13 13 14 14 14 14 15 16 15 15 16 16 15 15 16 17 16 16 16 15 14 14 14 14 13 14 15
14 14 16 16 13 13 13 13 12 11 12 13 13 13 13 12 13 13 14 14 14 14 15 15 15 15 14 14 15 15 16 17 17 16 16 16 15 15 14 14 14 14 13 14
15 15 14 13 11 10 10 11 11 11 11 11 12 12 13 13 13 13 14 14 14 14 15 15 15 15 14 15 15 15 16 17 16 16 16 15 15 15 15 14 14 13 13 13